Temp
66 64 61 60 60 61 61 61 60 59 59 58 58 58 59 59 60 61 63 63 63 63 61 60 60 59 59 59 58 59 59 59 60 58 59 60 63 63 63 65 66 67 66
61 60 57 60 62 62 62 59 60 59 59 59 59 59 59 59 60 61 63 63 63 62 61 60 60 59 58 58 58 58 57 58 59 58 58 57 60 62 64 64 65 67 68
61 58 57 58 61 61 60 61 60 59 60 60 59 59 59 59 59 59 60 61 63 63 62 61 60 59 58 57 57 58 59 57 58 60 59 55 55 59 62 63 64 66 66
59 57 57 57 61 61 61 60 60 60 61 60 60 60 58 57 57 58 59 60 63 63 62 61 60 59 58 57 58 59 60 60 58 59 61 60 61 57 56 62 63 65 65
58 57 58 60 61 60 61 60 60 60 61 60 60 59 58 57 58 58 59 59 61 63 62 61 60 59 58 59 59 59 59 60 59 60 60 61 61 61 60 56 60 62 64
56 56 58 61 59 59 59 59 60 60 60 60 60 60 59 58 57 57 57 57 58 60 61 61 60 60 59 59 59 60 60 60 61 61 61 61 60 59 59 59 59 60 62
55 57 59 59 57 58 58 59 60 59 60 61 61 60 60 59 58 57 57 56 56 58 59 60 60 60 61 61 60 60 61 60 61 61 61 61 61 62 62 62 59 59 61
55 58 60 59 59 59 58 60 59 59 60 61 60 60 60 57 57 57 57 56 56 57 59 60 61 62 62 62 61 61 61 61 62 62 62 61 61 63 63 61 61 57 59
54 57 59 58 59 58 58 59 59 59 60 61 60 60 60 58 58 58 57 57 57 59 60 61 61 61 62 62 62 61 62 62 62 61 62 63 62 63 64 63 64 60 57
54 57 58 57 58 58 59 59 59 60 61 61 60 61 61 60 59 58 58 58 58 60 60 61 61 61 62 62 61 62 64 64 61 62 63 62 63 63 63 63 63 61 61
56 58 57 58 58 58 58 58 59 60 61 61 60 63 61 60 59 59 59 59 59 59 61 61 61 61 61 61 62 63 63 62 62 62 63 62 63 62 62 62 63 61 62
57 58 59 57 57 57 57 58 59 60 61 61 62 63 63 60 59 59 59 59 59 60 61 61 61 61 61 61 61 63 63 63 62 62 63 61 62 62 62 63 62 62 62
55 55 56 58 58 57 58 59 59 61 61 62 61 61 61 60 59 59 59 59 60 60 61 62 61 61 61 61 61 62 62 62 62 63 62 62 63 62 62 62 61 62 62
57 58 56 56 57 58 59 60 60 61 61 62 61 61 61 60 59 59 59 60 61 61 61 62 62 62 62 61 61 61 62 63 62 62 62 63 63 62 61 61 61 61 61
57 59 58 57 56 57 58 60 61 61 60 61 61 61 60 61 60 60 60 60 61 61 62 62 62 62 62 62 61 62 63 63 62 62 63 63 62 60 61 62 61 62 61
60 60 60 59 57 59 59 60 61 60 61 61 62 62 61 62 61 60 60 60 61 61 62 62 62 61 62 50 54 59 62 63 62 61 61 61 59 57 55 56 56 60 61
61 61 61 61 60 61 61 59 60 60 60 61 63 63 62 63 61 61 60 60 59 60 61 61 62 61 59 47 50 53 63 62 61 61 62 62 61 61 61 54 54 55 56
63 63 63 62 60 61 60 61 61 60 61 61 63 63 64 63 62 61 60 58 58 59 59 59 61 60 57 47 48 53 62 62 62 62 63 63 63 60 62 63 62 63 63
66 66 66 64 59 61 62 61 60 60 61 62 62 63 64 62 61 60 58 58 57 57 58 59 60 60 57 46 46 57 63 62 62 63 61 63 63 48 51 64 62 60 59
67 66 65 64 62 62 61 60 60 59 61 62 63 63 64 62 61 59 58 58 58 58 59 59 60 56 59 45 47 57 63 60 60 60 60 53 58 46 49 60 61 59 59
67 65 65 64 63 61 63 61 59 60 64 65 64 63 62 61 61 58 58 58 57 57 57 57 57 59 58 54 45 50 62 61 60 61 61 61 49 45 44 50 60 59 58
66 67 65 65 64 63 64 62 60 64 64 64 64 62 61 65 62 59 58 58 57 56 55 55 56 57 57 49 45 46 52 53 61 60 61 59 45 44 44 50 48 46 52
69 69 68 65 64 64 67 63 63 62 63 62 61 60 60 62 61 60 58 58 57 57 55 57 57 57 56 55 47 45 46 48 60 61 56 46 43 43 45 45 44 46 60
69 69 67 65 63 65 67 68 64 66 65 62 60 59 59 59 60 62 61 60 58 57 58 58 57 57 56 56 55 55 54 48 54 50 51 48 47 46 49 51 52 59 61
69 70 68 66 66 66 67 66 66 66 64 62 61 59 60 60 60 61 60 63 62 61 60 60 60 57 57 57 52 53 56 57 53 50 53 53 54 54 55 55 56 57 57
69 69 69 66 67 68 68 66 68 67 64 62 61 60 61 60 61 60 57 44 47 48 46 47 57 61 55 48 45 44 44 43 44 54 54 54 55 56 56 56 56 57 55
MSLP
1000.59 1000.93 1001.64 1002.73 1003.76 1004.44 1005.26 1006.02 1007.05 1007.90 1008.52 1009.24 1009.62 1009.63 1009.39 1009.34 1009.15 1009.11 1009.02 1009.06 1009.25 1009.29 1009.66 1009.95 1010.21 1010.48 1010.76 1010.92 1011.25 1011.50 1011.67 1011.95 1012.10 1012.31 1012.50 1012.51 1012.40 1012.37 1012.45 1012.45 1012.41 1012.74 1012.88
1000.88 1001.36 1001.99 1002.62 1002.97 1003.79 1004.91 1006.00 1006.92 1007.78 1008.26 1008.69 1008.86 1008.76 1009.08 1009.12 1009.09 1009.03 1008.87 1008.84 1008.85 1009.03 1009.37 1009.66 1010.03 1010.27 1010.66 1010.87 1011.11 1011.34 1011.54 1011.81 1012.01 1012.16 1012.31 1012.54 1012.62 1012.52 1012.54 1012.55 1012.65 1012.76 1012.77
1000.66 1001.29 1002.13 1002.61 1003.26 1004.07 1005.00 1005.88 1006.79 1007.58 1008.08 1008.27 1008.43 1008.78 1009.08 1009.08 1009.08 1009.02 1008.90 1008.90 1008.73 1008.79 1009.12 1009.53 1009.87 1010.14 1010.45 1010.71 1010.92 1011.08 1011.21 1011.60 1012.01 1011.94 1012.02 1012.46 1012.52 1012.71 1012.76 1012.71 1012.80 1012.84 1012.90
1001.14 1001.41 1002.28 1003.03 1003.53 1004.38 1005.09 1005.74 1006.77 1007.50 1007.78 1007.94 1008.30 1008.70 1009.05 1009.29 1009.20 1009.12 1009.07 1008.98 1008.79 1008.78 1009.02 1009.47 1009.78 1010.05 1010.35 1010.55 1010.68 1010.87 1011.09 1011.20 1011.54 1011.89 1011.82 1011.84 1011.99 1012.32 1012.89 1012.93 1013.05 1013.11 1013.19
1000.79 1001.75 1002.43 1003.00 1003.80 1004.56 1005.25 1005.94 1006.79 1007.33 1007.49 1007.76 1008.16 1008.58 1008.87 1009.08 1009.05 1009.10 1009.13 1009.06 1008.94 1009.00 1009.29 1009.51 1009.74 1009.98 1010.16 1010.34 1010.45 1010.79 1010.99 1011.18 1011.27 1011.36 1011.57 1011.82 1011.79 1011.69 1012.08 1013.00 1013.22 1013.34 1013.46
1001.10 1001.92 1002.88 1003.45 1004.13 1004.85 1005.49 1006.22 1006.80 1007.17 1007.43 1007.78 1008.11 1008.41 1008.71 1008.88 1009.09 1009.16 1009.23 1009.29 1009.25 1009.20 1009.43 1009.57 1009.73 1009.89 1010.06 1010.16 1010.32 1010.49 1010.86 1011.17 1011.19 1011.21 1011.23 1011.61 1011.80 1012.00 1012.02 1012.71 1013.22 1013.51 1013.77
1001.31 1002.26 1002.86 1003.57 1004.48 1005.24 1005.77 1006.26 1006.71 1007.18 1007.42 1007.75 1008.04 1008.33 1008.59 1008.87 1009.07 1009.10 1009.29 1009.36 1009.36 1009.46 1009.63 1009.68 1009.77 1009.92 1009.92 1010.07 1010.18 1010.36 1010.72 1010.97 1011.08 1011.08 1011.18 1011.35 1011.56 1011.83 1011.84 1012.43 1013.04 1013.65 1014.09
1001.85 1002.43 1002.93 1003.54 1004.38 1005.15 1005.77 1006.23 1006.69 1007.11 1007.35 1007.67 1008.02 1008.22 1008.50 1008.89 1008.99 1009.12 1009.23 1009.30 1009.45 1009.62 1009.72 1009.74 1009.83 1009.86 1009.86 1010.03 1010.15 1010.29 1010.53 1010.69 1010.92 1011.10 1011.04 1011.25 1011.67 1011.59 1011.64 1012.25 1012.77 1013.13 1014.15
1002.15 1002.42 1003.11 1003.60 1004.43 1005.09 1005.71 1006.08 1006.64 1007.02 1007.26 1007.52 1007.94 1008.18 1008.49 1008.74 1008.95 1009.10 1009.14 1009.31 1009.58 1009.71 1009.81 1009.86 1009.89 1009.95 1010.03 1010.09 1010.27 1010.35 1010.38 1010.65 1010.85 1010.99 1011.10 1011.16 1011.52 1011.76 1011.63 1011.96 1012.50 1013.26 1014.13
1002.58 1002.75 1003.36 1003.87 1004.43 1005.03 1005.52 1006.06 1006.45 1006.77 1007.06 1007.44 1007.79 1008.00 1008.23 1008.58 1008.94 1009.07 1009.12 1009.34 1009.69 1009.77 1009.89 1009.94 1010.04 1010.08 1010.18 1010.28 1010.46 1010.62 1010.59 1010.64 1010.95 1011.02 1011.02 1011.35 1011.47 1011.92 1012.25 1012.39 1012.82 1013.34 1014.12
1002.22 1002.72 1003.36 1003.95 1004.40 1005.04 1005.64 1006.14 1006.49 1006.78 1007.00 1007.36 1007.71 1007.87 1008.07 1008.53 1008.90 1009.01 1009.19 1009.42 1009.69 1009.79 1009.91 1009.98 1010.11 1010.22 1010.46 1010.60 1010.64 1010.74 1010.74 1010.81 1010.98 1011.17 1011.17 1011.42 1011.52 1012.02 1012.52 1013.00 1013.29 1013.80 1014.24
1002.10 1002.69 1003.24 1003.97 1004.68 1005.12 1005.79 1006.21 1006.44 1006.68 1006.86 1007.26 1007.58 1007.80 1007.85 1008.48 1008.84 1008.98 1009.21 1009.42 1009.72 1009.87 1009.98 1010.06 1010.16 1010.40 1010.57 1010.72 1010.88 1010.83 1010.88 1010.96 1011.13 1011.32 1011.48 1011.79 1012.10 1012.36 1012.82 1013.24 1013.84 1014.41 1014.76
1002.40 1002.92 1003.61 1004.18 1004.70 1005.17 1005.68 1006.15 1006.34 1006.51 1006.85 1007.25 1007.49 1007.85 1008.01 1008.52 1008.73 1008.92 1009.16 1009.43 1009.71 1009.93 1010.06 1010.14 1010.34 1010.64 1010.84 1011.02 1011.17 1011.21 1011.30 1011.40 1011.54 1011.72 1011.98 1012.21 1012.42 1012.90 1013.43 1013.93 1014.39 1014.78 1015.42
1002.32 1002.78 1003.59 1004.07 1004.58 1005.08 1005.53 1005.96 1006.22 1006.45 1006.80 1007.23 1007.54 1007.80 1008.08 1008.46 1008.68 1008.84 1009.09 1009.41 1009.76 1009.92 1010.12 1010.29 1010.49 1010.80 1011.09 1011.35 1011.49 1011.52 1011.70 1011.81 1011.94 1012.19 1012.39 1012.59 1012.96 1013.36 1013.70 1014.13 1014.55 1015.17 1015.82
1002.08 1002.40 1003.15 1003.76 1004.50 1004.98 1005.42 1005.78 1005.99 1006.39 1006.79 1007.22 1007.62 1007.86 1008.20 1008.46 1008.77 1008.92 1009.12 1009.42 1009.73 1010.03 1010.22 1010.45 1010.77 1011.01 1011.29 1011.53 1011.81 1012.06 1012.06 1012.11 1012.33 1012.65 1012.80 1013.09 1013.54 1013.88 1014.20 1014.57 1015.20 1015.62 1016.31
1001.44 1002.03 1002.67 1003.28 1004.14 1004.55 1005.08 1005.63 1005.95 1006.34 1006.73 1007.13 1007.55 1007.90 1008.24 1008.54 1008.92 1009.10 1009.29 1009.59 1009.82 1010.08 1010.32 1010.53 1010.83 1011.29 1011.59 1011.88 1012.17 1012.36 1012.49 1012.59 1012.74 1013.00 1013.47 1013.66 1013.92 1014.32 1014.68 1015.13 1015.59 1015.80 1016.45
1000.52 1001.23 1001.90 1002.58 1003.40 1003.96 1004.54 1005.32 1005.77 1006.21 1006.65 1006.99 1007.45 1007.85 1008.20 1008.55 1009.03 1009.26 1009.54 1009.80 1010.13 1010.25 1010.49 1010.81 1011.03 1011.35 1011.83 1012.14 1012.38 1012.62 1012.76 1012.86 1013.05 1013.35 1013.77 1014.25 1014.67 1014.96 1015.34 1015.73 1016.10 1016.48 1016.95
999.91 1000.49 1001.23 1002.16 1002.92 1003.50 1004.19 1004.78 1005.53 1006.10 1006.52 1006.97 1007.33 1007.76 1008.05 1008.51 1009.04 1009.51 1009.90 1010.11 1010.36 1010.60 1010.81 1011.07 1011.26 1011.62 1012.14 1012.28 1012.52 1012.83 1013.14 1013.26 1013.44 1013.74 1014.10 1014.49 1015.02 1015.50 1015.82 1016.20 1016.71 1017.02 1017.29
998.23 999.13 1000.11 1001.23 1002.28 1003.03 1003.67 1004.59 1005.44 1005.99 1006.41 1006.80 1007.20 1007.62 1008.04 1008.47 1009.00 1009.49 1009.99 1010.31 1010.53 1010.87 1011.10 1011.22 1011.49 1011.76 1012.42 1012.68 1012.94 1013.13 1013.37 1013.54 1013.85 1014.16 1014.51 1014.81 1015.41 1015.80 1016.04 1016.47 1016.99 1017.40 1017.81
997.93 998.70 999.79 1000.88 1001.80 1002.65 1003.32 1004.32 1005.11 1005.81 1006.20 1006.44 1006.75 1007.28 1007.81 1008.25 1008.89 1009.36 1009.87 1010.28 1010.60 1010.88 1011.27 1011.59 1011.71 1012.05 1012.42 1012.82 1013.17 1013.24 1013.46 1013.76 1014.19 1014.60 1015.05 1015.36 1015.77 1016.06 1016.35 1016.78 1017.23 1017.57 1017.80
997.04 998.28 999.37 1000.19 1000.92 1002.12 1002.95 1003.93 1004.63 1005.24 1005.49 1005.92 1006.47 1007.11 1007.60 1008.05 1008.51 1009.23 1009.76 1010.16 1010.69 1011.14 1011.57 1011.89 1012.13 1012.41 1012.57 1013.02 1013.31 1013.48 1013.68 1014.07 1014.55 1014.86 1015.28 1015.70 1016.07 1016.51 1016.61 1017.05 1017.36 1017.57 1017.75
996.93 997.85 998.74 999.75 1000.51 1001.53 1002.42 1003.45 1004.11 1004.36 1005.14 1005.71 1006.31 1006.95 1007.46 1007.86 1008.54 1009.13 1009.70 1010.19 1010.62 1011.25 1011.71 1012.11 1012.53 1012.85 1013.01 1013.18 1013.47 1013.73 1013.80 1014.19 1014.53 1014.96 1015.37 1015.73 1016.18 1016.68 1017.02 1017.32 1017.54 1017.82 1018.08
995.81 996.77 997.87 999.15 1000.10 1000.78 1001.47 1002.51 1003.15 1004.06 1004.84 1005.58 1006.12 1006.77 1007.38 1007.89 1008.35 1009.02 1009.68 1010.38 1010.70 1011.15 1011.78 1012.09 1012.40 1012.70 1013.19 1013.41 1013.63 1013.95 1014.15 1014.23 1014.57 1014.89 1015.31 1015.76 1016.20 1016.69 1017.14 1017.41 1017.65 1017.84 1018.08
995.29 996.11 997.37 998.45 999.43 1000.17 1000.68 1001.03 1002.40 1003.41 1004.42 1005.31 1005.93 1006.49 1007.24 1007.91 1008.39 1008.84 1009.39 1010.04 1010.68 1011.19 1011.55 1012.03 1012.43 1012.75 1013.03 1013.45 1013.82 1014.08 1014.38 1014.71 1014.98 1015.27 1015.83 1016.22 1016.62 1016.94 1017.20 1017.60 1017.79 1017.89 1018.01
994.81 995.48 996.40 997.39 998.28 999.42 1000.24 1000.95 1001.73 1002.82 1003.95 1004.81 1005.60 1006.31 1006.90 1007.53 1008.25 1008.76 1009.26 1009.57 1009.87 1010.19 1010.95 1011.35 1011.73 1012.45 1012.99 1013.05 1013.24 1013.68 1014.32 1014.61 1015.05 1015.75 1016.34 1016.73 1017.03 1017.33 1017.61 1017.78 1017.94 1018.11 1018.15
994.91 994.87 995.64 996.64 997.56 998.52 999.40 1000.31 1001.03 1001.91 1003.08 1004.34 1005.17 1005.84 1006.49 1007.18 1007.80 1008.55 1009.42 1009.69 1009.67 1009.85 1010.21 1010.44 1010.83 1011.56 1011.70 1012.22 1012.95 1013.50 1014.00 1014.50 1014.93 1015.60 1016.09 1016.50 1016.77 1017.06 1017.26 1017.51 1017.82 1018.04 1018.10
Wind_Speed
8 5 9 11 11 11 13 12 10 7 5 2 2 3 3 2 2 2 4 4 3 4 4 3 3 3 3 3 4 3 4 3 2 2 1 1 2 1 2 1 2 1 1
4 4 8 11 16 16 14 11 9 8 5 3 3 2 2 2 3 2 1 3 4 4 4 4 3 4 2 3 4 4 2 2 2 2 2 2 2 2 1 1 1 1 2
10 7 9 10 12 16 14 12 9 9 6 5 2 3 1 1 2 2 1 2 2 3 4 4 3 3 3 3 3 4 4 3 2 2 3 2 2 1 2 2 2 3 3
4 6 8 10 13 11 10 9 8 8 6 6 3 3 3 1 2 1 1 2 1 3 3 4 4 3 3 3 4 3 2 3 3 1 2 1 2 3 2 2 1 4 4
9 9 10 12 11 11 10 8 8 7 6 6 5 4 2 2 1 1 1 1 3 3 3 3 4 4 3 3 4 4 3 1 3 3 2 1 1 2 3 2 2 2 2
8 9 9 12 9 7 8 7 8 6 6 5 5 5 4 4 1 0 1 1 1 2 3 4 3 3 3 3 3 4 4 3 2 2 2 2 2 2 2 3 3 4 2
11 13 17 13 10 9 8 7 8 6 6 5 5 5 4 3 2 1 1 2 1 2 2 3 3 2 3 4 4 4 3 3 2 3 2 2 1 2 2 5 3 3 3
9 12 14 12 12 10 8 8 8 6 6 5 5 4 4 3 2 2 2 2 2 3 2 3 3 3 4 3 3 2 3 3 3 4 3 2 3 2 5 5 5 3 3
9 13 12 11 10 9 9 9 8 5 6 5 5 5 4 5 3 3 3 3 3 2 2 2 4 4 4 3 3 2 3 3 3 4 4 2 3 2 4 5 6 5 4
9 11 10 10 7 8 7 7 7 8 6 5 5 4 5 5 4 3 4 5 3 2 3 3 4 4 4 4 5 4 3 4 3 3 6 5 4 5 5 5 5 5 6
12 12 9 7 8 7 7 7 6 6 5 5 4 5 5 5 5 4 4 4 3 3 3 3 4 4 5 4 5 3 3 5 5 5 6 7 7 6 7 5 6 7 8
10 10 11 9 8 8 7 7 6 6 5 5 4 4 5 5 5 4 4 4 3 2 3 4 5 5 4 4 5 4 5 6 5 6 7 8 7 8 7 7 8 8 7
9 8 8 9 9 7 7 6 6 6 5 5 5 5 4 5 5 5 5 4 4 4 3 4 5 5 5 5 4 5 6 6 5 6 7 8 10 9 8 8 8 8 8
10 10 8 8 8 7 7 6 6 5 6 5 5 6 5 5 4 5 5 5 4 4 4 4 6 5 5 5 5 5 6 6 6 7 6 7 10 11 9 8 9 9 9
11 13 12 9 8 7 6 5 5 6 6 6 6 6 5 5 5 5 5 5 5 4 4 6 6 5 5 4 6 7 8 6 7 7 6 7 10 10 10 8 8 10 8
12 12 12 11 10 10 8 6 6 6 6 6 6 6 6 6 5 5 5 5 5 5 4 5 6 6 4 9 9 8 7 6 7 8 8 7 10 9 12 12 9 8 8
15 15 15 14 12 11 10 8 7 6 6 6 6 6 6 6 6 5 5 5 5 4 5 4 4 5 5 8 10 9 5 5 6 8 8 8 6 9 10 11 12 10 10
14 14 13 11 9 8 8 7 6 6 7 6 6 6 6 7 6 6 5 4 3 4 4 4 4 5 4 10 9 10 7 6 7 7 7 9 9 7 9 9 6 4 3
18 15 15 13 10 11 10 8 7 7 6 7 7 6 6 7 7 6 6 3 4 3 2 3 5 6 5 7 10 8 7 8 9 7 6 8 8 8 10 7 6 3 2
13 14 13 10 12 10 11 10 8 7 8 8 8 7 7 9 8 7 7 4 3 4 4 4 3 6 6 6 9 7 5 7 5 4 5 9 8 8 7 5 4 4 4
17 12 14 15 15 11 12 11 8 10 10 8 7 7 6 8 8 7 4 5 5 5 5 5 3 4 4 6 7 8 5 5 5 5 4 4 9 9 4 5 4 2 6
16 15 15 13 12 13 14 12 12 11 7 8 8 7 6 5 6 9 5 5 7 6 5 5 4 3 1 4 7 9 7 7 6 5 3 3 6 6 8 5 5 8 6
17 16 16 13 12 15 15 15 13 8 8 8 8 7 7 5 6 7 7 5 5 6 5 3 3 3 3 2 5 6 7 8 4 3 4 8 8 9 6 3 7 8 4
15 15 15 15 15 14 16 16 13 12 11 10 7 7 8 6 5 4 6 7 6 4 5 4 4 2 2 3 3 3 4 7 5 7 6 6 6 5 5 5 4 4 4
12 15 16 15 16 15 13 10 14 14 12 10 7 7 6 8 7 5 5 7 7 9 8 6 6 6 4 5 7 8 5 4 6 8 4 2 2 3 3 2 3 3 4
9 14 14 13 15 16 15 13 15 16 14 10 7 7 7 6 7 7 4 7 1 9 6 6 9 6 8 12 13 11 7 12 15 3 3 3 4 5 5 4 4 3 5
Wind_Direction
277 189 152 139 136 141 147 152 150 169 146 142 169 216 212 241 276 259 233 219 222 197 189 199 189 182 198 194 182 172 180 190 155 128 88 64 21 322 227 184 131 128 35
232 157 147 157 163 156 153 146 155 163 171 160 192 145 159 237 256 272 271 222 216 200 179 183 189 175 178 191 180 169 140 153 169 132 126 81 5 58 69 69 135 182 77
209 185 164 159 148 154 152 153 162 167 177 177 118 79 56 356 335 309 11 275 226 195 190 177 167 175 173 184 177 176 161 138 173 195 140 135 180 132 25 78 93 132 110
273 133 146 149 155 145 144 141 152 165 180 166 129 146 154 203 241 261 308 302 71 114 144 170 166 175 167 178 184 172 164 143 148 190 209 159 159 148 136 60 151 112 130
171 164 154 145 139 138 149 147 153 168 165 160 154 144 151 216 229 73 44 7 40 119 139 144 150 157 179 186 176 161 189 173 159 158 162 143 281 69 128 132 142 77 78
130 116 119 137 130 129 133 145 158 170 159 160 163 147 174 192 155 34 3 2 32 99 112 139 159 157 164 159 170 179 180 185 185 203 158 158 136 180 134 125 133 139 95
128 138 150 148 138 148 152 153 163 157 169 176 156 157 186 173 140 173 219 136 144 102 113 128 136 117 140 152 145 163 161 178 176 188 195 118 147 225 124 131 106 122 109
140 152 153 149 151 153 155 157 159 152 173 176 153 161 170 139 143 180 165 132 132 129 137 123 118 102 104 129 140 141 160 157 136 145 140 197 177 198 138 139 120 133 92
154 152 154 148 149 153 162 160 161 166 178 184 157 166 173 146 157 159 134 111 112 130 112 104 91 81 89 101 132 134 163 131 136 132 166 156 123 152 104 120 137 134 144
149 152 152 148 150 155 152 157 168 168 184 179 159 184 173 150 158 162 133 132 135 118 109 80 89 91 92 94 102 113 115 120 113 129 137 117 134 112 106 105 101 95 122
162 159 148 155 148 143 151 168 167 162 173 159 160 190 163 152 163 154 143 146 137 146 148 118 108 112 106 110 110 108 113 105 117 106 110 106 115 110 100 104 96 99 107
153 154 153 145 147 156 158 180 172 176 186 161 166 188 159 143 166 157 156 148 141 157 171 133 118 118 119 120 127 130 93 99 89 103 101 96 103 101 99 98 100 108 103
133 131 135 155 160 162 169 181 185 190 167 153 157 152 162 142 155 162 155 143 138 140 131 122 120 127 129 120 108 103 95 87 87 96 104 118 117 110 110 112 114 108 107
150 151 154 161 161 168 170 182 192 177 154 151 150 152 161 143 143 141 133 128 138 134 127 124 122 122 121 116 108 97 95 90 88 90 98 105 115 121 123 113 109 111 114
164 168 168 162 167 164 174 185 177 161 157 154 156 163 133 122 125 126 125 128 130 127 126 117 119 126 121 121 116 107 112 91 90 88 89 78 100 109 121 126 123 124 124
177 168 170 163 172 174 177 182 179 170 160 161 167 150 132 129 130 132 138 134 132 129 127 128 135 138 128 137 124 127 129 115 112 102 98 103 97 96 99 103 91 111 132
174 173 177 177 176 178 171 182 184 153 168 167 161 152 144 135 143 139 134 137 141 139 132 121 132 135 135 143 144 127 129 112 110 114 121 114 114 113 107 91 94 101 107
180 178 173 175 172 173 164 167 152 167 167 171 168 153 151 143 144 133 134 123 122 143 137 132 136 128 127 152 136 121 122 118 109 119 123 125 115 102 114 115 117 112 84
182 175 171 170 158 169 167 158 160 164 165 175 174 167 156 151 151 148 151 146 131 126 138 144 138 131 144 144 134 122 126 127 126 123 119 126 120 126 124 116 117 87 93
170 165 162 159 159 176 158 157 172 164 185 183 183 167 156 154 164 157 161 146 134 134 130 123 141 130 145 161 149 134 125 120 120 90 106 99 120 131 134 107 127 150 161
166 151 156 169 177 162 159 171 165 186 197 179 160 161 164 163 162 151 157 141 130 120 116 111 117 133 160 168 171 148 135 131 134 142 143 152 143 153 161 113 144 159 135
154 164 163 174 167 163 164 171 184 197 166 162 163 164 172 161 144 159 148 142 134 130 134 126 106 94 103 147 185 174 142 146 139 156 161 155 171 166 167 177 176 122 128
169 169 170 163 166 168 174 175 194 162 155 157 170 165 158 163 153 147 144 136 142 147 156 154 149 147 134 136 181 189 161 163 146 155 164 144 157 156 160 194 139 146 159
170 164 160 168 171 178 179 189 162 167 162 172 177 159 159 157 156 141 156 153 160 158 162 164 173 165 155 162 159 168 151 128 97 101 89 96 98 84 104 110 155 183 182
160 162 169 174 175 171 182 166 160 160 168 174 173 167 166 169 164 152 170 177 187 176 175 192 174 166 192 213 182 165 167 171 131 110 100 104 106 132 152 147 165 169 156
188 165 173 166 167 173 175 167 167 165 165 172 171 178 169 172 169 163 145 47 27 207 219 176 171 198 197 173 180 188 158 133 143 102 148 174 180 181 184 180 177 188 181